Ludington, MI

11:33 AM EDT on July 26, 2017 (GMT -0400)
Mason County

Weather History for KLDM - February, 2014

Change the Weather History Date:

Friday, February 7, 2014

  Actual Average Record
Temperature  
Mean Temperature 12 °F -  
Max Temperature 16 °F 30 °F 46 °F (1987)
Min Temperature 9 °F 13 °F -13 °F (1967)
Degree Days  
Heating Degree Days 52    
Moisture  
Dew Point 5 °F    
Average Humidity 73    
Maximum Humidity 81    
Minimum Humidity 61    
Precipitation  
Precipitation 0.00 in - - ()
Sea Level Pressure  
Sea Level Pressure 30.20 in    
Wind  
Wind Speed 12 mph (WSW)    
Max Wind Speed 20 mph    
Max Gust Speed 25 mph    
Visibility 5 miles    
Events Snow    
Averages and records for this station are not official NWS values.
T = Trace of Precipitation, MM = Missing Value Source: NWS Daily Summary

Daily Weather History Graph

Daily Weather History Graph

Search for Another Location

Airport or City:

Trip Planner

Search our weather history database for the weather conditions in past years. The results will help you decide how hot, cold, wet, or windy it might be!

Date:

Astronomy

Feb. 07, 2014 Rise Set
Actual Time 7:55 AM EST 6:04 PM EST
Civil Twilight 7:25 AM EST 6:34 PM EST
Nautical Twilight 6:51 AM EST 7:08 PM EST
Astronomical Twilight 6:17 AM EST 7:42 PM EST
Moon 12:13 PM EST (2/7) 2:12 AM EST (2/7)
Length of Visible Light 11h 09m
Length of Day
10h 08m
First Quarter, 59% of the Moon is Illuminated
Feb 7
First Quarter
Feb 14
Full
Feb 22
Last Quarter
Mar 1
New
Mar 8
First Quarter

Hourly Weather History & Observations

Time (EST) Temp. Windchill Dew Point Humidity Pressure Visibility Wind Dir Wind Speed Gust Speed Precip Events Conditions
12:14 AM 9.3 °F -4.6 °F 2.1 °F 73% 30.23 in 7.0 mi West 10.4 mph 19.6 mph N/A   Overcast
12:35 AM 9.3 °F -3.8 °F 2.8 °F 75% 30.23 in 4.0 mi West 9.2 mph 19.6 mph N/A   Haze
12:55 AM 9.3 °F -5.4 °F 3.0 °F 76% 30.23 in 5.0 mi West 11.5 mph 18.4 mph N/A Snow Light Snow
1:14 AM 9.3 °F -5.4 °F 3.2 °F 76% 30.23 in 3.0 mi West 11.5 mph 18.4 mph N/A Snow Light Snow
1:35 AM 9.3 °F -3.8 °F 3.2 °F 76% 30.23 in 4.0 mi West 9.2 mph 17.3 mph N/A Snow Light Snow
1:55 AM 9.3 °F -6.1 °F 3.4 °F 77% 30.22 in 2.0 mi West 12.7 mph 20.7 mph N/A Snow Light Snow
2:14 AM 9.3 °F -2.8 °F 3.7 °F 78% 30.22 in 2.0 mi West 8.1 mph 17.3 mph N/A Snow Light Snow
2:35 AM 9.3 °F -4.6 °F 3.9 °F 79% 30.22 in 2.0 mi West 10.4 mph - N/A Snow Light Snow
2:55 AM 9.3 °F -1.7 °F 2.8 °F 75% 30.22 in 5.0 mi West 6.9 mph 17.3 mph N/A Snow Light Snow
3:14 AM 9.3 °F -5.4 °F 4.1 °F 79% 30.22 in 2.0 mi West 11.5 mph 16.1 mph N/A Snow Light Snow
3:35 AM 9.3 °F -6.8 °F 3.7 °F 78% 30.21 in 3.0 mi WSW 13.8 mph 19.6 mph N/A Snow Light Snow
3:55 AM 9.3 °F -3.8 °F 3.9 °F 79% 30.21 in 2.5 mi West 9.2 mph 16.1 mph N/A Snow Light Snow
4:14 AM 9.3 °F -3.8 °F 3.9 °F 79% 30.20 in 3.0 mi West 9.2 mph 16.1 mph N/A Snow Light Snow
4:35 AM 9.3 °F -3.8 °F 4.1 °F 79% 30.20 in 3.0 mi West 9.2 mph 16.1 mph N/A Snow Light Snow
4:54 AM 9.3 °F -6.1 °F 3.6 °F 77% 30.20 in 4.0 mi West 12.7 mph 18.4 mph N/A Snow Light Snow
5:15 AM 9.3 °F -6.8 °F 3.7 °F 78% 30.20 in 3.0 mi West 13.8 mph 19.6 mph N/A Snow Light Snow
5:35 AM 9.3 °F -6.1 °F 3.7 °F 78% 30.20 in 2.5 mi West 12.7 mph 20.7 mph N/A Snow Light Snow
5:54 AM 9.3 °F -5.4 °F 3.9 °F 79% 30.20 in 4.0 mi West 11.5 mph 19.6 mph N/A Snow Light Snow
6:15 AM 9.3 °F -3.8 °F 3.9 °F 79% 30.19 in 2.5 mi West 9.2 mph - N/A Snow Light Snow
6:35 AM 9.3 °F -4.6 °F 3.7 °F 78% 30.19 in 2.5 mi West 10.4 mph 19.6 mph N/A Snow Light Snow
6:54 AM 9.3 °F -4.6 °F 3.7 °F 78% 30.19 in 3.0 mi West 10.4 mph 17.3 mph N/A Snow Light Snow
7:15 AM 9.3 °F -5.4 °F 4.6 °F 81% 30.19 in 2.0 mi West 11.5 mph - N/A Snow Light Snow
7:35 AM 9.3 °F -3.8 °F 3.7 °F 78% 30.19 in 3.0 mi West 9.2 mph 17.3 mph N/A Snow Light Snow
7:54 AM 9.3 °F -5.4 °F 4.1 °F 79% 30.19 in 3.0 mi West 11.5 mph - N/A Snow Light Snow
8:15 AM 9.3 °F -3.8 °F 3.9 °F 79% 30.20 in 3.0 mi West 9.2 mph 18.4 mph N/A Snow Light Snow
8:35 AM 9.3 °F -4.6 °F 4.1 °F 79% 30.21 in 4.0 mi West 10.4 mph 19.6 mph N/A Snow Light Snow
8:54 AM 9.3 °F -3.8 °F 4.1 °F 79% 30.21 in 2.0 mi West 9.2 mph - N/A Snow Light Snow
9:15 AM 9.3 °F -1.7 °F 3.9 °F 79% 30.21 in 2.5 mi West 6.9 mph 18.4 mph N/A Snow Light Snow
9:35 AM 9.3 °F -6.1 °F 3.7 °F 78% 30.22 in 3.0 mi West 12.7 mph 19.6 mph N/A Snow Light Snow
9:54 AM 9.3 °F -5.4 °F 4.1 °F 79% 30.22 in 1.8 mi WSW 11.5 mph 17.3 mph N/A Snow Light Snow
10:15 AM 9.3 °F -2.8 °F 3.6 °F 77% 30.22 in 2.5 mi West 8.1 mph 18.4 mph N/A Snow Light Snow
10:34 AM 9.3 °F -6.1 °F 3.9 °F 79% 30.22 in 2.5 mi WSW 12.7 mph 20.7 mph N/A Snow Light Snow
10:54 AM 9.9 °F -5.5 °F 4.3 °F 78% 30.23 in 2.5 mi West 12.7 mph 20.7 mph N/A Snow Light Snow
11:15 AM 11.3 °F -2.2 °F 4.5 °F 74% 30.23 in 5.0 mi West 10.4 mph 16.1 mph N/A Snow Light Snow
11:34 AM 11.8 °F -3.6 °F 5.5 °F 76% 30.22 in 2.5 mi WSW 13.8 mph 17.3 mph N/A Snow Light Snow
11:54 AM 11.8 °F -3.6 °F 5.0 °F 74% 30.22 in 3.0 mi WSW 13.8 mph 21.9 mph N/A Snow Light Snow
12:15 PM 11.8 °F -3.0 °F 5.0 °F 74% 30.22 in 3.0 mi WSW 12.7 mph 19.6 mph N/A Snow Light Snow
12:34 PM 11.8 °F -2.3 °F 4.8 °F 73% 30.21 in 2.5 mi WSW 11.5 mph 17.3 mph N/A Snow Light Snow
12:55 PM 11.8 °F -3.6 °F 5.5 °F 76% 30.20 in 2.0 mi WSW 13.8 mph 20.7 mph N/A Snow Light Snow
1:15 PM 12.6 °F -3.8 °F 6.1 °F 75% 30.20 in 2.0 mi WSW 16.1 mph 20.7 mph N/A Snow Light Snow
1:34 PM 14.4 °F -0.4 °F 7.5 °F 74% 30.20 in 3.0 mi West 13.8 mph 21.9 mph N/A Snow Light Snow
1:55 PM 14.4 °F -2.5 °F 7.7 °F 75% 30.19 in 4.0 mi WSW 18.4 mph 23.0 mph N/A   Haze
2:15 PM 14.4 °F -2.5 °F 7.7 °F 75% 30.19 in 3.0 mi WSW 18.4 mph 23.0 mph N/A   Haze
2:34 PM 14.4 °F -1.5 °F 7.7 °F 75% 30.18 in 2.5 mi WSW 16.1 mph 25.3 mph N/A   Haze
2:55 PM 14.4 °F -2.0 °F 7.2 °F 73% 30.18 in 3.0 mi WSW 17.3 mph 24.2 mph N/A   Haze
3:15 PM 14.4 °F -1.5 °F 7.0 °F 73% 30.18 in 3.0 mi WSW 16.1 mph 24.2 mph N/A   Haze
3:34 PM 14.4 °F -1.5 °F 6.8 °F 72% 30.18 in 3.0 mi WSW 16.1 mph 23.0 mph N/A   Haze
3:55 PM 14.4 °F -3.0 °F 6.8 °F 72% 30.18 in 3.0 mi WSW 19.6 mph 24.2 mph N/A   Haze
4:15 PM 14.4 °F -3.0 °F 6.4 °F 71% 30.18 in 3.0 mi WSW 19.6 mph 25.3 mph N/A   Haze
4:34 PM 14.9 °F -1.8 °F 6.8 °F 70% 30.18 in 4.0 mi WSW 18.4 mph 24.2 mph N/A   Haze
4:55 PM 15.1 °F -0.1 °F 6.4 °F 69% 30.18 in 4.0 mi WSW 15.0 mph 24.2 mph N/A   Haze
5:15 PM 15.1 °F -0.6 °F 6.4 °F 69% 30.18 in 5.0 mi WSW 16.1 mph 20.7 mph N/A   Haze
5:34 PM 14.5 °F 0.5 °F 5.7 °F 68% 30.18 in 10.0 mi WSW 12.7 mph 20.7 mph N/A   Scattered Clouds
5:55 PM 14.4 °F -1.0 °F 5.7 °F 69% 30.18 in 10.0 mi WSW 15.0 mph 21.9 mph N/A   Scattered Clouds
6:14 PM 14.4 °F -1.5 °F 5.9 °F 69% 30.18 in 7.0 mi WSW 16.1 mph - N/A   Scattered Clouds
6:34 PM 14.4 °F -2.5 °F 5.9 °F 69% 30.19 in 10.0 mi WSW 18.4 mph 23.0 mph N/A   Scattered Clouds
6:55 PM 14.4 °F -0.4 °F 5.9 °F 69% 30.20 in 10.0 mi WSW 13.8 mph - N/A   Scattered Clouds
7:14 PM 14.7 °F 0.1 °F 5.0 °F 65% 30.20 in 10.0 mi WSW 13.8 mph 23.0 mph N/A   Scattered Clouds
7:35 PM 14.9 °F -0.3 °F 5.0 °F 65% 30.20 in 10.0 mi WSW 15.0 mph 21.9 mph N/A   Clear
7:55 PM 14.7 °F -0.5 °F 4.6 °F 64% 30.20 in 10.0 mi WSW 15.0 mph 20.7 mph N/A   Clear
8:14 PM 15.6 °F 2.5 °F 5.2 °F 63% 30.20 in 10.0 mi West 11.5 mph 17.3 mph N/A   Clear
8:35 PM 15.6 °F 0.1 °F 4.6 °F 62% 30.20 in 10.0 mi West 16.1 mph 23.0 mph N/A   Scattered Clouds
8:55 PM 16.3 °F 4.1 °F 4.8 °F 61% 30.20 in 10.0 mi West 10.4 mph 21.9 mph N/A   Clear
9:14 PM 15.6 °F 3.2 °F 4.8 °F 62% 30.21 in 10.0 mi West 10.4 mph 19.6 mph N/A   Scattered Clouds
9:35 PM 15.6 °F 1.8 °F 4.8 °F 62% 30.21 in 10.0 mi West 12.7 mph 17.3 mph N/A   Scattered Clouds
9:55 PM 15.6 °F 2.5 °F 5.0 °F 63% 30.21 in 10.0 mi West 11.5 mph 18.4 mph N/A   Scattered Clouds
10:14 PM 15.6 °F 0.6 °F 5.5 °F 64% 30.21 in 10.0 mi West 15.0 mph 20.7 mph N/A   Scattered Clouds
10:35 PM 15.8 °F 3.4 °F 5.7 °F 64% 30.21 in 10.0 mi West 10.4 mph - N/A   Scattered Clouds
10:55 PM 15.6 °F 1.2 °F 5.9 °F 66% 30.21 in 10.0 mi WSW 13.8 mph 17.3 mph N/A   Clear
11:14 PM 15.6 °F 2.5 °F 6.3 °F 67% 30.21 in 10.0 mi West 11.5 mph 18.4 mph N/A   Scattered Clouds
11:35 PM 15.6 °F 3.2 °F 5.5 °F 64% 30.21 in 10.0 mi West 10.4 mph 18.4 mph N/A   Scattered Clouds
11:55 PM 15.8 °F 3.4 °F 5.9 °F 65% 30.22 in 10.0 mi West 10.4 mph 18.4 mph N/A   Scattered Clouds